Location: Bazugues
(43.4465°N, 0.3432°E)
Time: 17:54:16
(UTC+00:00)

ISS - Visible Passes

Search period start: 13 March 2026 00:00
Search period end: 23 March 2026 00:00
Orbit: 415 x 426 km, 51.6° (Epoch: 12 March)

Date Brightness Start Highest point End Pass type
(mag) Time Alt. Az. Time Alt. Az. Time Alt. Az.
13 Mar -3.5 18:43:42 10° SW 18:47:01 52° SE 18:50:15 11° ENE visible
13 Mar -1.7 20:20:54 10° W 20:23:16 28° NW 20:23:16 28° NW visible
14 Mar -2.6 19:33:31 10° W 19:36:46 42° NNW 19:38:25 23° NNE visible
15 Mar -3.3 18:46:12 10° WSW 18:49:34 60° NNW 18:52:57 10° NE visible
15 Mar -1.4 20:24:09 10° WNW 20:26:27 21° NNW 20:26:27 21° NNW visible
16 Mar -1.8 19:36:40 10° WNW 19:39:33 25° NNW 19:41:21 17° NNE visible
17 Mar -2.1 18:49:09 10° W 18:52:14 31° NNW 18:55:19 10° NE visible
17 Mar -1.3 20:27:11 10° NW 20:29:10 19° NNW 20:29:10 19° NNW visible
18 Mar -1.6 19:39:45 10° NW 19:42:22 20° N 19:43:55 15° NNE visible
19 Mar -1.7 18:52:13 10° WNW 18:54:58 22° N 18:57:41 10° NE visible
19 Mar -1.4 20:29:47 10° NW 20:31:36 20° NNW 20:31:36 20° NNW visible
20 Mar -1.8 19:42:29 10° NW 19:45:09 21° N 19:46:15 18° NE visible
21 Mar -1.6 18:55:04 10° NW 18:57:40 20° N 19:00:16 10° NE visible
21 Mar -1.6 20:32:02 10° NW 20:33:52 25° NNW 20:33:52 25° NNW visible
22 Mar -2.3 19:44:46 10° NW 19:47:46 27° NNE 19:48:29 25° NE visible
22 Mar -0.1 21:21:27 10° WNW 21:21:28 10° WNW 21:21:28 10° WNW visible
